Decatur, IL

6:32 PM CDT on October 21, 2017 (GMT -0500)
Decatur

Weather History for KDEC - June, 2013

Change the Weather History Date:

Tuesday, June 18, 2013

  Actual Average Record
Temperature  
Mean Temperature 74 °F 73 °F  
Max Temperature 85 °F 83 °F 92 °F (2012)
Min Temperature 62 °F 63 °F 44 °F (1999)
Degree Days  
Heating Degree Days 0 0  
Month to date heating degree days 14 14  
Since 1 June heating degree days 14 14  
Since 1 July heating degree days 5419 5518  
Cooling Degree Days 9 8  
Month to date cooling degree days 108 112  
Year to date cooling degree days 220 199  
Since 1 June cooling degree days 108 112  
Growing Degree Days 24 (Base 50)    
Moisture  
Dew Point 63 °F    
Average Humidity 71    
Maximum Humidity 93    
Minimum Humidity 49    
Precipitation  
Precipitation 0.87 in 0.15 in 0.96 in (2007)
Month to date precipitation 3.06 2.78  
Year to date precipitation 21.37 17.23  
Sea Level Pressure  
Sea Level Pressure 29.93 in    
Wind  
Wind Speed 6 mph (WSW)    
Max Wind Speed 23 mph    
Max Gust Speed 28 mph    
Visibility 9 miles    
Events Rain , Thunderstorm    
T = Trace of Precipitation, MM = Missing Value Source: NWS Daily Summary

Daily Weather History Graph

Daily Weather History Graph

Search for Another Location

Airport or City:

Trip Planner

Search our weather history database for the weather conditions in past years. The results will help you decide how hot, cold, wet, or windy it might be!

Date:

Astronomy

Jun. 18, 2013 Rise Set
Actual Time 5:26 AM CDT 8:26 PM CDT
Civil Twilight 4:54 AM CDT 8:59 PM CDT
Nautical Twilight 4:12 AM CDT 9:40 PM CDT
Astronomical Twilight 3:24 AM CDT 10:29 PM CDT
Moon 3:11 PM CDT (6/18) 1:34 AM CDT (6/18)
Length of Visible Light 16h 05m
Length of Day
14h 59m
Waxing Gibbous, 71% of the Moon is Illuminated
Jun 18
Waxing Gibbous
Jun 23
Full
Jun 29
Last Quarter
Jul 8
New
Jul 15
First Quarter

Hourly Weather History & Observations

Time (CDT) Temp. Heat Index Dew Point Humidity Pressure Visibility Wind Dir Wind Speed Gust Speed Precip Events Conditions
12:54 AM 68.0 °F - 62.1 °F 81% 29.91 in 10.0 mi WSW 5.8 mph - N/A   Clear
1:54 AM 66.0 °F - 63.0 °F 90% 29.91 in 10.0 mi South 6.9 mph - N/A   Partly Cloudy
2:54 AM 66.0 °F - 63.0 °F 90% 29.91 in 10.0 mi WSW 5.8 mph - N/A   Clear
3:54 AM 64.9 °F - 62.1 °F 90% 29.90 in 10.0 mi SSW 3.5 mph - N/A   Clear
4:54 AM 64.9 °F - 61.0 °F 87% 29.92 in 10.0 mi WSW 3.5 mph - N/A   Clear
5:54 AM 64.9 °F - 62.1 °F 90% 29.94 in 10.0 mi WNW 5.8 mph - N/A   Clear
6:54 AM 68.0 °F - 62.1 °F 81% 29.94 in 10.0 mi West 8.1 mph - N/A   Clear
7:54 AM 73.0 °F - 64.0 °F 73% 29.93 in 10.0 mi WNW 5.8 mph - N/A   Clear
8:54 AM 75.9 °F - 66.0 °F 71% 29.94 in 10.0 mi NNW 4.6 mph - N/A   Clear
9:54 AM 78.1 °F - 66.9 °F 68% 29.94 in 10.0 mi Calm Calm - N/A   Clear
10:54 AM 80.1 °F 82.1 °F 66.0 °F 62% 29.93 in 10.0 mi Calm Calm - N/A   Clear
11:54 AM 82.0 °F 83.8 °F 64.9 °F 56% 29.94 in 10.0 mi Calm Calm - N/A   Clear
12:54 PM 84.0 °F 86.5 °F 66.9 °F 56% 29.93 in 10.0 mi NNE 3.5 mph - N/A   Partly Cloudy
1:54 PM 75.9 °F - 68.0 °F 76% 29.93 in 5.0 mi North 5.8 mph - 0.04 in Rain , Thunderstorm Rain
2:07 PM 75.2 °F - 71.6 °F 89% 29.94 in 1.8 mi SW 11.5 mph 16.1 mph 0.12 in Rain , Thunderstorm Heavy Rain
2:23 PM 66.2 °F - 57.2 °F 73% 29.95 in 4.0 mi SW 12.7 mph - 0.34 in Rain , Thunderstorm Light Rain
2:39 PM 69.8 °F - 60.8 °F 73% 29.93 in 10.0 mi South 9.2 mph - 0.34 in Thunderstorm Scattered Clouds
2:47 PM 71.6 °F - 59.0 °F 64% 29.94 in 10.0 mi South 9.2 mph - 0.34 in   Partly Cloudy
2:54 PM 73.0 °F - 60.1 °F 64% 29.93 in 10.0 mi South 5.8 mph - 0.34 in   Clear
3:54 PM 80.1 °F 80.7 °F 59.0 °F 48% 29.90 in 10.0 mi South 4.6 mph - N/A   Clear
4:54 PM 81.0 °F 81.7 °F 61.0 °F 50% 29.89 in 10.0 mi SE 3.5 mph - N/A Thunderstorm Scattered Clouds
5:29 PM 69.8 °F - 64.4 °F 83% 29.94 in 2.5 mi WSW 17.3 mph - 0.18 in Rain , Thunderstorm Heavy Rain
5:48 PM 71.6 °F - 66.2 °F 83% 29.93 in 6.0 mi ESE 10.4 mph - 0.49 in Rain Rain
5:54 PM 70.0 °F - 62.1 °F 76% 29.91 in 6.0 mi East 15.0 mph - 0.49 in Rain Light Rain
6:54 PM 73.0 °F - 62.1 °F 68% 29.93 in 10.0 mi Calm Calm - 0.00 in   Scattered Clouds
7:54 PM 71.1 °F - 64.0 °F 78% 29.95 in 10.0 mi NNE 6.9 mph - N/A   Clear
8:54 PM 68.0 °F - 61.0 °F 78% 29.96 in 10.0 mi NNE 8.1 mph - N/A   Partly Cloudy
9:54 PM 69.1 °F - 60.1 °F 73% 29.99 in 10.0 mi NNE 11.5 mph - N/A   Clear
10:54 PM 66.0 °F - 57.9 °F 75% 29.99 in 10.0 mi NNE 11.5 mph - N/A   Clear
11:54 PM 64.0 °F - 57.0 °F 78% 30.00 in 10.0 mi NNE 8.1 mph - N/A   Clear